| time (UTC) | temp F | wind direction | speed MPH | gust MPH | rain 1hr in | rain 24hr in | rain mn in | humidity % | barometer mb |
| 20260510141540 | 62 | 240 | 11.0 | 21.0 | 0.00 | 0.00 | 0.00 | 64 | 1018.1 |
| 20260510140037 | 61 | 222 | 12.0 | 20.0 | 0.00 | 0.00 | 0.00 | 66 | 1018.0 |
| 20260510134537 | 60 | 217 | 10.0 | 20.0 | 0.00 | 0.00 | 0.00 | 70 | 1018.0 |
| 20260510133036 | 59 | 232 | 10.0 | 17.0 | 0.00 | 0.00 | 0.00 | 71 | 1018.0 |
| 20260510131538 | 59 | 239 | 9.0 | 15.0 | 0.00 | 0.00 | 0.00 | 73 | 1018.1 |
| 20260510124548 | 56 | 224 | 7.0 | 14.0 | 0.00 | 0.00 | 0.00 | 81 | 1018.0 |
| 20260510123038 | 55 | 230 | 9.0 | 13.0 | 0.00 | 0.00 | 0.00 | 86 | 1017.9 |
| 20260510121539 | 54 | 254 | 7.0 | 13.0 | 0.00 | 0.00 | 0.00 | 89 | 1017.9 |
| 20260510120043 | 52 | 224 | 5.0 | 8.0 | 0.00 | 0.00 | 0.00 | 91 | 1017.4 |
| 20260510114538 | 51 | 237 | 4.0 | 9.0 | 0.00 | 0.00 | 0.00 | 92 | 1017.4 |
| 20260510113040 | 49 | 185 | 1.0 | 3.0 | 0.00 | 0.00 | 0.00 | 92 | 1017.1 |
| 20260510111534 | 48 | 0 | 0.0 | 3.0 | 0.00 | 0.00 | 0.00 | 92 | 1017.0 |
| 20260510110041 | 47 | 231 | 2.0 | 5.0 | 0.00 | 0.00 | 0.00 | 91 | 1016.9 |
| 20260510104548 | 46 | 0 | 1.0 | 4.0 | 0.00 | 0.00 | 0.00 | 91 | 1016.6 |
| 20260510103040 | 46 | 233 | 2.0 | 5.0 | 0.00 | 0.00 | 0.00 | 91 | 1016.5 |
| 20260510101900 | 47 | 269 | 0.0 | 4.0 | 0.00 | 0.00 | 0.00 | 91 | 1016.2 |
| 20260510101540 | 47 | 269 | 0.0 | 4.0 | 0.00 | 0.00 | 0.00 | 91 | 1016.2 |
| 20260510100037 | 47 | 214 | 1.0 | 5.0 | 0.00 | 0.00 | 0.00 | 91 | 1016.1 |
| 20260510094536 | 47 | 208 | 2.0 | 5.0 | 0.00 | 0.00 | 0.00 | 91 | 1016.1 |
| 20260510093037 | 46 | 218 | 2.0 | 5.0 | 0.00 | 0.00 | 0.00 | 91 | 1016.0 |
| 20260510091542 | 46 | 220 | 3.0 | 6.0 | 0.00 | 0.00 | 0.00 | 91 | 1015.7 |
| 20260510090045 | 46 | 226 | 2.0 | 5.0 | 0.00 | 0.00 | 0.00 | 91 | 1015.5 |
| 20260510084539 | 46 | 239 | 2.0 | 6.0 | 0.00 | 0.00 | 0.00 | 90 | 1015.4 |
| 20260510083052 | 46 | 245 | 2.0 | 5.0 | 0.00 | 0.00 | 0.00 | 90 | 1015.4 |
| 20260510081538 | 46 | 214 | 3.0 | 5.0 | 0.00 | 0.00 | 0.00 | 90 | 1015.3 |
| 20260510080429 | 47 | 222 | 1.0 | 5.0 | 0.00 | 0.00 | 0.00 | 90 | 1015.2 |
| 20260510074535 | 47 | 212 | 3.0 | 5.0 | 0.00 | 0.00 | 0.00 | 90 | 1015.0 |
| 20260510073107 | 47 | 240 | 2.0 | 4.0 | 0.00 | 0.00 | 0.00 | 90 | 1015.0 |
| 20260510071911 | 47 | 241 | 2.0 | 4.0 | 0.00 | 0.00 | 0.00 | 90 | 1015.0 |
| 20260510070039 | 47 | 256 | 3.0 | 5.0 | 0.00 | 0.00 | 0.00 | 90 | 1015.0 |
| 20260510064540 | 47 | 247 | 3.0 | 5.0 | 0.00 | 0.00 | 0.00 | 89 | 1015.0 |
| 20260510063045 | 48 | 257 | 3.0 | 7.0 | 0.00 | 0.00 | 0.00 | 89 | 1015.0 |
| 20260510061732 | 47 | 232 | 3.0 | 5.0 | 0.00 | 0.00 | 0.00 | 89 | 1014.9 |
| 20260510060042 | 46 | 258 | 2.0 | 4.0 | 0.00 | 0.00 | 0.00 | 88 | 1014.8 |
| 20260510054938 | 46 | 220 | 0.0 | 4.0 | 0.00 | 0.00 | 0.00 | 88 | 1014.9 |
| 20260510053038 | 46 | 250 | 2.0 | 3.0 | 0.00 | 0.00 | 0.00 | 88 | 1014.9 |
| 20260510051614 | 47 | 0 | 0.0 | 3.0 | 0.00 | 0.00 | 0.00 | 87 | 1015.1 |
| 20260510043109 | 48 | 247 | 3.0 | 5.0 | 0.00 | 0.00 | 0.00 | 86 | 1015.0 |
| 20260510041737 | 48 | 245 | 2.0 | 3.0 | 0.00 | 0.00 | 0.00 | 85 | 1015.0 |
| 20260510040142 | 48 | 241 | 2.0 | 4.0 | 0.00 | 0.00 | 0.00 | 85 | 1015.0 |
| 20260510034610 | 49 | 256 | 1.0 | 4.0 | 0.00 | 0.00 | 0.00 | 84 | 1014.7 |
| 20260510033045 | 49 | 254 | 3.0 | 6.0 | 0.00 | 0.00 | 0.00 | 84 | 1014.7 |
| 20260510023037 | 50 | 251 | 2.0 | 4.0 | 0.00 | 0.00 | 0.00 | 79 | 1014.8 |
| 20260510021537 | 50 | 235 | 3.0 | 5.0 | 0.00 | 0.00 | 0.00 | 77 | 1014.5 |
| 20260510020045 | 51 | 231 | 0.0 | 3.0 | 0.00 | 0.00 | 0.00 | 76 | 1014.4 |
| 20260510014543 | 52 | 221 | 2.0 | 4.0 | 0.00 | 0.00 | 0.00 | 76 | 1014.0 |
| 20260510013040 | 53 | 222 | 2.0 | 3.0 | 0.00 | 0.00 | 0.00 | 74 | 1013.6 |
| 20260510011537 | 54 | 216 | 2.0 | 4.0 | 0.00 | 0.00 | 0.00 | 72 | 1013.5 |
| 20260510010039 | 55 | 0 | 0.0 | 3.0 | 0.00 | 0.00 | 0.00 | 68 | 1013.2 |
| 20260510004554 | 57 | 222 | 0.0 | 1.0 | 0.00 | 0.00 | 0.00 | 66 | 1013.2 |
| 20260510000038 | 60 | 233 | 1.0 | 8.0 | 0.00 | 0.00 | 0.00 | 61 | 1013.0 |
| 20260509234543 | 61 | 224 | 3.0 | 10.0 | 0.00 | 0.00 | 0.00 | 60 | 1012.8 |
| 20260509233038 | 61 | 211 | 4.0 | 10.0 | 0.00 | 0.00 | 0.00 | 59 | 1012.8 |
| 20260509231537 | 62 | 254 | 5.0 | 14.0 | 0.00 | 0.00 | 0.00 | 59 | 1012.6 |
| 20260509230052 | 62 | 256 | 7.0 | 15.0 | 0.00 | 0.00 | 0.00 | 58 | 1012.5 |
| 20260509224545 | 62 | 245 | 7.0 | 14.0 | 0.00 | 0.00 | 0.00 | 57 | 1012.5 |
| 20260509223047 | 62 | 267 | 8.0 | 14.0 | 0.00 | 0.00 | 0.00 | 57 | 1012.5 |
| 20260509193132 | 62 | 247 | 7.0 | 17.0 | 0.00 | 0.00 | 0.00 | 54 | 1011.8 |
| 20260509191539 | 62 | 239 | 9.0 | 17.0 | 0.00 | 0.00 | 0.00 | 54 | 1011.8 |
| 20260509190215 | 61 | 207 | 8.0 | 19.0 | 0.00 | 0.00 | 0.00 | 53 | 1011.8 |
| 20260509184545 | 62 | 251 | 7.0 | 13.0 | 0.00 | 0.00 | 0.00 | 53 | 1011.8 |
| 20260509183039 | 62 | 233 | 8.0 | 15.0 | 0.00 | 0.00 | 0.00 | 49 | 1011.8 |
| 20260509181545 | 63 | 205 | 9.0 | 17.0 | 0.00 | 0.00 | 0.00 | 52 | 1011.8 |
| 20260509171549 | 61 | 274 | 6.0 | 11.0 | 0.00 | 0.00 | 0.00 | 59 | 1012.0 |
| 20260509170048 | 60 | 193 | 9.0 | 15.0 | 0.00 | 0.00 | 0.00 | 56 | 1012.1 |
| 20260509164536 | 60 | 237 | 10.0 | 16.0 | 0.00 | 0.00 | 0.00 | 58 | 1012.2 |
| 20260509163043 | 59 | 249 | 8.0 | 19.0 | 0.00 | 0.00 | 0.00 | 61 | 1012.1 |
| 20260509161544 | 60 | 242 | 6.0 | 23.0 | 0.00 | 0.00 | 0.00 | 59 | 1012.0 |
| 20260509160037 | 60 | 211 | 8.0 | 16.0 | 0.00 | 0.00 | 0.00 | 64 | 1012.3 |
| 20260509154538 | 58 | 215 | 4.0 | 13.0 | 0.00 | 0.00 | 0.00 | 66 | 1011.9 |
| 20260509153036 | 57 | 217 | 5.0 | 12.0 | 0.00 | 0.00 | 0.00 | 69 | 1012.4 |
| 20260509151538 | 57 | 254 | 6.0 | 14.0 | 0.00 | 0.00 | 0.00 | 69 | 1012.4 |
| 20260509150043 | 57 | 283 | 6.0 | 12.0 | 0.00 | 0.00 | 0.00 | 69 | 1012.3 |
| 20260509144538 | 57 | 238 | 5.0 | 13.0 | 0.00 | 0.00 | 0.00 | 68 | 1012.3 |
| 20260509143041 | 57 | 239 | 6.0 | 14.0 | 0.00 | 0.00 | 0.00 | 67 | 1012.1 |